Weather observations for the past three days for
Batavia Clermont County Airport
Imperial (Metric)
Date Time (edt) Wind (mph) Vis. (mi.) Weather Sky Cond. Temperature (ºF) Relative Humidity Wind Chill (°F) Heat Index (°F) Pressure Precipitation (in)
Air Dwpt 6 hour altimeter (in) sea level (mb) 1 hr 3 hr 6 hr
Max. Min.
25 04:16 Calm 10.00 Fair CLR 64.2 59.9 86% 29.99 0.0
25 03:56 Calm 10.00 Fair CLR 64 60.3 88% 29.98 0.0
25 03:36 Calm 10.00 Fair CLR 64 60.6 89% 29.99 0.0
25 03:16 Calm 10.00 Fair CLR 64.6 60.8 88% 29.99 0.0
25 02:56 Calm 10.00 Fair CLR 65.1 61.2 87% 30 0.0
25 02:36 Calm 10.00 Fair CLR 64.4 60.8 88% 30.01 0.0
25 02:16 Calm 10.00 Fair CLR 65.3 60.8 85% 30.01 0.0
25 01:56 Calm 10.00 Fair CLR 64.6 61.2 81.3 64.4 89% 30.01 0.0
25 01:36 Calm 10.00 Fair CLR 67.3 60.8 80% 30.01 0.0
25 01:16 Calm 10.00 Fair CLR 66.2 61 83% 30.01 0.0
25 00:56 Calm 10.00 Fair CLR 66.9 61.3 82% 30 0.0
25 00:36 Calm 10.00 Fair CLR 66.7 61.3 83% 30 0.0
25 00:16 Calm 7.00 Fair CLR 68 61.7 80% 29.99 0.0
24 23:56 Calm 10.00 Fair CLR 68.9 61.3 77% 29.99 0.0
24 23:36 Calm 10.00 Fair CLR 68.9 61.7 78% 29.99 0.0
24 23:16 Calm 10.00 Fair CLR 69.8 61.5 75% 29.99 0.0
24 22:56 Calm 10.00 Fair CLR 68.9 61.2 76% 29.99 0.0
24 22:36 Calm 10.00 Fair CLR 72.1 61.5 69% 29.99 0.0
24 22:16 Calm 10.00 Fair CLR 73.2 61.7 67% 29.99 0.0
24 21:56 Calm 10.00 Fair CLR 73.4 61.9 67% 29.98 0.0
24 21:36 Calm 10.00 Fair CLR 75.2 61.9 63% 77 29.98 0.0
24 21:16 Calm 10.00 Fair CLR 77.7 60.3 55% 79 29.97 0.0
24 20:56 SE 3 10.00 Partly Cloudy SCT070 78.1 60.3 54% 79 29.97 0.0
24 20:36 Calm 10.00 Mostly Cloudy BKN070 79 60.3 53% 80 29.98 0.0
24 20:16 SE 3 10.00 Mostly Cloudy BKN070 79.7 59.7 51% 81 29.98 0.0
24 19:56 SE 3 10.00 Mostly Cloudy BKN070 81.7 59.4 84.9 81 47% 82 29.98 0.0
24 19:36 Calm 10.00 Partly Cloudy SCT070 81.7 59 46% 82 29.98 0.0
24 19:16 E 3 10.00 Partly Cloudy SCT070 82.9 57.6 42% 83 29.98 0.0
24 18:56 Calm 10.00 Partly Cloudy SCT070 82.9 57.9 43% 83 29.98 0.0
24 18:36 Calm 10.00 Fair CLR 82.6 58.5 44% 82 29.99 0.0
24 18:16 Calm 10.00 Fair CLR 83.8 57.7 41% 83 29.99 0.0
24 17:56 Calm 10.00 Partly Cloudy SCT070 84 58.5 42% 84 29.99 0.0
24 17:36 NE 3 10.00 Partly Cloudy SCT075 83.3 58.3 43% 83 29.99 0.0
24 17:16 Calm 10.00 Partly Cloudy SCT075 83.7 58.1 42% 83 29.99 0.0
24 16:56 Calm 10.00 Fair CLR 83.3 57.6 42% 83 29.99 0.0
24 16:36 NE 7 10.00 Fair CLR 83.1 57.4 42% 83 29.99 0.0
24 16:16 E 6 10.00 Partly Cloudy SCT055 SCT065 84.6 58.8 42% 84 30 0.0
24 15:56 NE 5 10.00 Mostly Cloudy BKN060 83.5 57.9 42% 83 30 0.0
24 15:36 SE 6 10.00 Partly Cloudy SCT060 SCT070 84 58.3 42% 84 30 0.0
24 15:16 NE 5 10.00 Mostly Cloudy SCT050 BKN070 82.4 58.3 44% 82 30.01 0.0
24 14:56 E 7 G 16 10.00 Partly Cloudy SCT050 SCT060 81.1 58.5 46% 81 30.01 0.0
24 14:36 Calm 10.00 Partly Cloudy SCT050 82.4 58.1 44% 82 30.01 0.0
24 14:16 N 7 10.00 Fair CLR 82.2 58.6 45% 82 30.01 0.0
24 13:56 N 6 10.00 Partly Cloudy SCT050 81.5 59.2 81.5 67.5 47% 82 30.01 0.0
24 13:36 NE 7 10.00 Partly Cloudy SCT050 80.4 58.8 48% 81 30.02 0.0
24 13:16 NE 3 10.00 Partly Cloudy SCT047 80.6 59 48% 81 30.02 0.0
24 12:56 N 6 10.00 Partly Cloudy SCT045 79.7 59 49% 80 30.01 0.0
24 12:36 N 5 10.00 Partly Cloudy SCT043 80.1 59.4 49% 81 30.01 0.0
24 12:16 N 7 10.00 Partly Cloudy SCT041 79.3 59 50% 80 30.01 0.0
24 11:56 NW 3 10.00 Fair CLR 77.7 59.4 53% 79 30.01 0.0
24 11:36 NW 5 10.00 Fair CLR 77 58.6 53% 79 30.01 0.0
24 11:16 NE 5 10.00 Fair CLR 76.1 58.3 54% 78 30.01 0.0
24 10:56 NE 7 10.00 Fair CLR 75.7 59 56% 78 30.01 0.0
24 10:36 N 8 10.00 Fair CLR 75.2 59.2 58% 78 30.01 0.0
24 10:16 N 8 10.00 Fair CLR 73.8 60.1 62% 30.01 0.0
24 09:56 N 9 10.00 Fair CLR 72.9 61 66% 30 0.0
24 09:36 N 8 10.00 Fair CLR 71.8 60.6 68% 30 0.0
24 09:16 NE 7 10.00 Fair CLR 70.7 60.8 71% 29.99 0.0
24 08:56 NE 6 10.00 Fair CLR 70 61 73% 29.99 0.0
24 08:36 N 6 10.00 Fair CLR 68.9 60.6 75% 29.99 0.0
24 08:16 N 8 10.00 Fair CLR 68 60.3 76% 29.98 0.0
24 07:56 N 6 10.00 Fair CLR 67.3 60.3 73.4 64.6 78% 29.97 0.0
24 07:36 N 6 10.00 Fair CLR 66.4 60.3 81% 29.97 0.0
24 07:16 N 6 10.00 Fair CLR 65.7 60.1 82% 29.96 0.0
24 06:56 N 5 10.00 Fair CLR 64.8 59.9 84% 29.95 0.0
24 06:36 Calm 10.00 Fair CLR 64.8 59.5 83% 29.94 0.0
24 06:16 N 3 10.00 Fair CLR 65.3 59.5 82% 29.94 0.0
24 05:56 N 6 10.00 Fair CLR 65.8 59.5 80% 29.94 0.0
24 05:36 N 8 10.00 Fair CLR 66.2 59.9 80% 29.93 0.0
24 05:16 N 5 10.00 Fair CLR 66.2 60.8 83% 29.92 0.0
24 04:56 NE 3 10.00 Fair CLR 67.1 60.8 80% 29.91 0.0
24 04:36 N 3 10.00 Fair CLR 68.2 60.8 77% 29.91 0.0
24 04:16 N 8 10.00 Fair CLR 68.5 60.8 76% 29.9 0.0
24 03:56 N 13 G 16 10.00 Fair CLR 70 61 73% 29.9 0.0
24 03:36 N 12 10.00 Partly Cloudy SCT044 71.1 60.8 70% 29.89 0.0
24 03:16 NW 8 10.00 Mostly Cloudy BKN044 72 61.3 69% 29.89 0.0
24 02:56 N 7 10.00 Mostly Cloudy SCT038 BKN047 72.7 62.1 69% 29.89 0.0
24 02:36 NW 6 10.00 Overcast SCT030 BKN042 OVC050 72.9 63.7 73% 29.89 0.0
24 02:16 N 7 10.00 Mostly Cloudy SCT031 BKN038 BKN060 73.2 64.8 75% 29.88 0.0
24 01:56 N 7 10.00 Partly Cloudy SCT029 SCT034 SCT044 73.4 65.3 82.8 73.4 76% 29.88 0.0
24 01:36 N 6 10.00 Mostly Cloudy BKN031 73.8 65.7 76% 29.88 0.0
24 01:16 N 5 10.00 Fair CLR 73.9 65.5 75% 29.87 0.0
24 00:56 NW 6 10.00 Fair CLR 74.8 65.3 72% 29.87 0.0
24 00:36 NW 7 10.00 Fair CLR 75.4 65.3 71% 77 29.86 0.0
24 00:16 NW 6 10.00 Fair CLR 75.7 65.3 70% 77 29.86 0.0
23 23:56 NW 6 10.00 Fair CLR 76.5 65.1 68% 78 29.85 0.0
23 23:36 NW 7 10.00 Fair CLR 76.8 65.3 68% 79 29.84 0.0
23 23:16 NW 6 10.00 Fair CLR 77 64.9 66% 79 29.83 0.0
23 22:56 NW 6 10.00 Fair CLR 77.2 64.9 66% 79 29.82 0.0
23 22:36 NW 5 10.00 Fair CLR 77.7 64.9 65% 80 29.82 0.0
23 22:16 NW 5 10.00 Fair CLR 78.3 64.8 63% 80 29.81 0.0
23 21:56 NW 7 10.00 Fair CLR 79.2 64.8 61% 81 29.81 0.0
23 21:36 NW 7 10.00 Fair CLR 79.3 64.8 61% 81 29.8 0.0
23 20:56 W 7 G 16 10.00 Partly Cloudy SCT048 81.1 65.3 59% 83 29.8 0.0
23 20:36 NW 9 10.00 Fair CLR 81.9 65.3 57% 84 29.79 0.0
23 19:56 NW 10 10.00 Partly Cloudy SCT037 SCT048 SCT060 82.8 70.3 85.1 76.5 66% 87 29.79 0.0 0.04
23 19:36 NW 8 10.00 Overcast SCT037 BKN046 OVC070 82.6 70.7 67% 87 29.79 0.0
23 19:16 NW 8 10.00 Mostly Cloudy SCT035 SCT045 BKN070 83.5 70.2 64% 88 29.78 0.0
23 18:56 W 12 G 20 10.00 Partly Cloudy SCT033 SCT049 SCT055 84.4 70.5 63% 89 29.77 0.0
23 18:36 W 8 10.00 Mostly Cloudy BKN030 BKN039 BKN055 84.9 73.6 69% 92 29.77 0.0
23 18:16 W 12 10.00 Partly Cloudy SCT031 SCT042 83.3 72.7 70% 89 29.77 0.0
23 17:56 W 13 10.00 Partly Cloudy SCT024 SCT033 SCT044 82.9 73 72% 89 29.77 0.0
23 17:36 W 10 10.00 Mostly Cloudy SCT024 BKN034 BKN042 82.9 74.7 76% 90 29.78 0.0
23 17:16 W 13 10.00 Mostly Cloudy SCT020 SCT034 BKN065 82.4 74.1 76% 89 29.79 0.0
23 16:56 W 15 G 18 10.00 Partly Cloudy SCT060 SCT075 82.4 74.7 78% 89 29.79 0.0 0.04
23 16:36 W 10 10.00 Mostly Cloudy SCT035 SCT043 BKN060 80.4 75.6 85% 86 29.79 0.0
23 16:16 W 9 10.00 Overcast SCT029 BKN038 OVC045 78.1 75 90% 81 29.8 0.0
23 15:56 W 10 G 18 7.00 Overcast SCT029 BKN037 OVC045 77.9 74.7 90% 80 29.81 0.0 0.04
23 15:36 W 10 G 18 5.00 Overcast BKN031 OVC037 77 74.3 91% 78 29.81 0.0 0.03
23 15:16 W 10 10.00 Overcast SCT019 BKN026 OVC035 77.9 74.1 88% 80 29.81 0.0
23 14:56 W 13 G 18 7.00 Overcast BKN021 OVC026 79.2 73.4 83% 83 29.82 0.0
23 14:36 W 9 10.00 Overcast OVC025 80.8 73 77% 85 29.81 0.0
23 14:16 W 16 G 20 10.00 Overcast BKN027 OVC031 81.7 72.3 73% 87 29.81 0.0
23 13:56 W 14 G 18 10.00 Overcast BKN027 BKN031 OVC039 82 73.6 85.1 75.6 76% 88 29.81 0.0
23 13:36 W 12 G 21 10.00 Overcast BKN027 BKN033 OVC039 83.3 72.7 70% 89 29.81 0.0
23 13:16 SW 14 G 23 10.00 Overcast SCT027 BKN035 OVC050 83.7 72 68% 89 29.81 0.0
23 12:56 W 17 G 25 10.00 Overcast BKN028 BKN037 OVC045 84.6 72.3 67% 91 29.81 0.0
23 12:36 W 13 10.00 Overcast SCT026 BKN032 OVC080 83.7 71.8 68% 89 29.81 0.0
23 12:16 W 20 G 25 10.00 Overcast BKN028 BKN034 OVC080 84.7 71.4 64% 90 29.81 0.0
23 11:56 SW 16 G 22 10.00 Mostly Cloudy SCT028 BKN090 84.2 70.9 64% 89 29.81 0.0
23 11:36 SW 17 G 22 10.00 Mostly Cloudy SCT020 SCT027 BKN090 83.8 71.2 66% 89 29.81 0.0
23 11:16 W 16 G 25 10.00 Mostly Cloudy BKN020 BKN070 82 71.4 70% 87 29.81 0.0
23 10:56 W 21 G 25 10.00 Mostly Cloudy and Breezy BKN020 80.6 71.2 73% 84 29.81 0.0
23 10:36 SW 12 G 17 10.00 Overcast OVC020 78.4 70.9 78% 81 29.82 0.0
23 10:16 W 14 G 18 10.00 Mostly Cloudy BKN022 BKN040 BKN055 77.4 70.7 80% 79 29.82 0.0
23 09:56 SW 8 10.00 Mostly Cloudy SCT028 SCT045 BKN095 76.1 70.9 84% 77 29.82 0.0
23 09:36 S 10 10.00 Overcast SCT030 SCT045 OVC110 75.7 70 82% 76 29.81 0.0
23 09:16 SW 9 10.00 Overcast SCT030 SCT055 OVC075 76.6 69.4 79% 78 29.84 0.0
23 08:56 SW 8 10.00 Overcast BKN055 OVC075 76.6 69.4 79% 78 29.86 0.0
23 08:36 SW 9 G 16 10.00 Overcast BKN055 OVC075 77.2 68.4 74% 79 29.85 0.0
23 08:16 SW 8 10.00 Overcast SCT055 BKN075 OVC085 77.4 68.2 73% 79 29.85 0.0
23 07:56 SW 10 10.00 Overcast SCT065 OVC095 77.7 68.4 79.7 77.4 73% 80 29.85 0.0
23 07:36 SW 12 10.00 Overcast OVC095 77.7 68.2 73% 80 29.85 0.0
23 07:16 SW 10 G 16 10.00 Overcast OVC095 77.4 68 73% 79 29.85 0.0
23 06:56 SW 10 10.00 Mostly Cloudy BKN095 77.4 68 73% 79 29.84 0.0
23 06:36 SW 9 10.00 Fair CLR 77.4 68 73% 79 29.84 0.0
23 06:16 SW 8 10.00 Fair CLR 77.7 68 72% 80 29.84 0.0
23 05:56 SW 8 G 16 10.00 Fair CLR 78.1 68 71% 80 29.84 0.0
23 05:36 SW 13 10.00 Fair CLR 78.3 68 71% 80 29.84 0.0
23 05:16 SW 9 10.00 Fair CLR 78.4 68 70% 81 29.84 0.0
23 04:56 SW 8 10.00 Fair CLR 78.3 68.2 71% 80 29.85 0.0
23 04:36 SW 12 10.00 Fair CLR 78.6 68.5 71% 81 29.86 0.0
23 04:16 SW 9 10.00 Fair CLR 78.8 68.9 72% 81 29.86 0.0
23 03:56 SW 8 10.00 Fair CLR 78.8 68.9 72% 81 29.87 0.0
23 03:36 SW 7 10.00 Fair CLR 79 69.1 72% 82 29.88 0.0
23 03:16 SW 7 10.00 Fair CLR 79 69.1 72% 82 29.88 0.0
23 02:56 SW 5 10.00 Fair CLR 79 68.9 71% 81 29.89 0.0
23 02:36 SW 8 10.00 Fair CLR 79.3 68.9 71% 82 29.89 0.0
23 02:16 SW 6 10.00 Fair CLR 79.7 69.1 70% 82 29.89 0.0
23 01:56 SW 7 10.00 Fair CLR 79.9 69.1 89.6 79.9 70% 83 29.9 0.0
23 01:36 SW 7 10.00 Fair CLR 80.2 68.9 68% 83 29.9 0.0
23 01:16 SW 7 10.00 Fair CLR 79.9 69.6 71% 83 29.9 0.0
23 00:56 SW 6 10.00 Fair CLR 80.6 69.8 70% 84 29.91 0.0
23 00:36 SW 5 10.00 Partly Cloudy SCT085 81 69.8 69% 84 29.92 0.0
23 00:16 SW 6 10.00 Overcast OVC085 81.5 69.8 68% 85 29.92 0.0
22 23:56 SW 5 10.00 Mostly Cloudy BKN080 81.7 69.4 67% 85 29.92 0.0
22 23:36 SW 3 10.00 Partly Cloudy SCT060 81.3 69.3 67% 85 29.92 0.0
22 23:16 SW 3 10.00 Partly Cloudy SCT070 82.6 69.1 64% 86 29.92 0.0
22 22:56 SW 5 10.00 Partly Cloudy SCT070 82.8 68.9 63% 86 29.92 0.0
22 22:36 SW 5 10.00 Fair CLR 83.1 68.9 62% 87 29.92 0.0
22 22:16 SW 5 10.00 Fair CLR 82.8 68.9 63% 86 29.92 0.0
22 21:56 Calm 10.00 Fair CLR 83.5 68.4 60% 87 29.92 0.0
22 21:36 Calm 10.00 Fair CLR 84.7 68.2 58% 88 29.92 0.0
22 21:16 SW 3 10.00 Fair CLR 85.5 68 56% 89 29.92 0.0
22 20:56 SW 5 10.00 Fair CLR 86.9 67.6 53% 90 29.93 0.0
22 20:36 SW 3 10.00 Fair CLR 87.6 67.6 52% 91 29.93 0.0
22 20:16 SW 6 10.00 Fair CLR 88.7 67.5 50% 92 29.94 0.0
22 19:56 SW 6 10.00 Fair CLR 89.8 67.1 94.1 89.8 47% 93 29.94 0.0
22 19:36 SW 7 10.00 Fair CLR 90.5 66.6 45% 93 29.94 0.0
22 19:16 SW 9 10.00 Fair CLR 91 66.6 45% 94 29.95 0.0
22 18:56 SW 9 10.00 Fair CLR 91.4 66.2 44% 94 29.96 0.0
22 18:36 SW 10 10.00 Fair CLR 91.9 65.5 42% 94 29.96 0.0
22 18:16 W 10 10.00 Fair CLR 92.5 65.8 42% 95 29.96 0.0
22 17:56 SW 9 10.00 Fair CLR 92.5 66.2 42% 95 29.97 0.0
22 17:36 SW 9 G 17 10.00 Partly Cloudy SCT060 92.8 65.8 41% 96 29.97 0.0
22 17:16 W 8 10.00 Fair CLR 93.4 66.2 41% 96 29.98 0.0
22 16:56 W 13 10.00 Fair CLR 92.8 65.7 41% 96 29.99 0.0
22 16:36 SW 12 10.00 Partly Cloudy SCT060 SCT075 SCT100 93.4 66.2 41% 96 29.99 0.0
22 16:16 W 10 10.00 Partly Cloudy SCT060 SCT075 SCT100 92.3 66.4 43% 95 30 0.0
22 15:56 W 7 10.00 Partly Cloudy SCT100 93 66.2 41% 96 30.01 0.0
22 15:36 SW 10 10.00 Partly Cloudy SCT060 93.9 65.3 39% 97 30.01 0.0
22 15:16 W 10 10.00 Partly Cloudy SCT060 93 66.2 41% 96 30.01 0.0
22 14:56 SW 10 10.00 Partly Cloudy SCT055 93.4 66 41% 96 30.02 0.0
22 14:36 SW 9 10.00 Partly Cloudy SCT055 92.8 66.2 42% 96 30.02 0.0
22 14:16 W 10 10.00 Partly Cloudy SCT055 92.1 67.1 44% 96 30.03 0.0
22 13:56 SW 7 G 10 10.00 Partly Cloudy SCT055 92.5 67.3 92.7 75.9 44% 96 30.04 0.0
22 13:36 SW 8 10.00 Fair CLR 91.8 66.7 44% 95 30.05 0.0
22 13:16 SW 5 10.00 Partly Cloudy SCT048 SCT055 SCT070 90.5 67.3 46% 94 30.06 0.0
22 12:56 W 9 10.00 Mostly Cloudy SCT048 SCT055 BKN090 91.2 69.6 49% 97 30.06 0.0
22 12:36 SW 8 10.00 Partly Cloudy SCT085 90.5 67.6 47% 94 30.07 0.0
22 12:16 SW 8 10.00 Mostly Cloudy SCT046 BKN085 90 68.2 49% 94 30.08 0.0
22 11:56 SW 5 10.00 Fair CLR 89.1 68.4 51% 93 30.08 0.0
22 11:36 W 9 10.00 Fair CLR 89.8 66.7 47% 93 30.09 0.0
22 11:16 W 3 10.00 Fair CLR 88.9 67.6 50% 92 30.09 0.0
22 10:56 SW 5 10.00 Partly Cloudy SCT055 87.3 67.5 52% 90 30.1 0.0
22 10:36 W 5 10.00 Mostly Cloudy BKN055 86.4 67.8 54% 90 30.1 0.0
22 10:16 W 5 10.00 Mostly Cloudy BKN055 86.9 68.9 55% 91 30.11 0.0
22 09:56 W 3 10.00 Mostly Cloudy BKN055 84.7 68.7 59% 88 30.11 0.0
22 09:36 Calm 10.00 Mostly Cloudy BKN055 83.8 72.9 70% 90 30.12 0.0
22 09:16 Calm 10.00 Partly Cloudy SCT055 83.1 72.5 70% 89 30.12 0.0
22 08:56 Calm 10.00 Fair CLR 81 72.3 75% 85 30.12 0.0
22 08:36 Calm 10.00 Partly Cloudy SCT070 78.6 71.4 79% 81 30.12 0.0
22 08:16 Calm 10.00 Partly Cloudy SCT070 77 71.6 83% 78 30.12 0.0
22 07:56 Calm 10.00 Fair CLR 75.4 71.1 75.4 69.8 87% 75 30.13 0.0
22 07:36 Calm 10.00 Fair CLR 72.7 70.2 92% 30.13 0.0
22 07:16 Calm 7.00 Fair CLR 70.7 68.7 93% 30.13 0.0
22 06:56 Calm 10.00 Fair CLR 70.3 68.4 93% 30.14 0.0
22 06:36 Calm 10.00 Partly Cloudy SCT080 70.7 68.2 92% 30.14 0.0
22 06:16 Calm 10.00 Mostly Cloudy BKN080 70.2 67.6 92% 30.14 0.0
22 05:56 Calm 10.00 Partly Cloudy SCT080 70.2 67.8 92% 30.14 0.0
22 05:36 Calm 10.00 Fair CLR 70.2 68.2 93% 30.13 0.0
22 05:16 Calm 10.00 Fair CLR 70.3 68.2 93% 30.13 0.0
22 04:56 Calm 10.00 Fair CLR 70.9 68.4 92% 30.13 0.0
22 04:36 Calm 10.00 Fair CLR 72.3 68.5 88% 30.14 0.0
Date Time (edt) Wind (mph) Vis. (mi.) Weather Sky Cond. Air Dwpt Max. Min. Relative Humidity Wind Chill (°F) Heat Index (°F) altimeter (in) sea level (mb) 1 hr 3 hr 6 hr
6 hour
Temperature (ºF) Pressure Precipitation (in)